Flag for U.S.A. Weather past 2 weeks in Lubbock, Texas, U.S.A.

30 °F

Light freezing rain. Ice fog.

Feels Like: 19 °F
Forecast: 28 / 35 °F
Wind: 14 mph from North

Location: Lubbock International Airport

Current Time: Nov 28, 2015 at 9:10:30 AM

Latest Report: Nov 28, 2015 at 8:03 AM

Visibility: 6 mi

Pressure: 30.24 "Hg (26.75 "Hg at 976m altitude)

Humidity: 92%

Dew point: 28 °F

Location of LubbockLocation

Historic Weather in Lubbock — Graph


Lubbock temperature yesterday

Maximum temperature yesterday: 35 °F (at 12:57 AM)
Minimum temperature yesterday: 28 °F (at 3:53 PM)
Average temperature yesterday: 30 °F

Past Weeks' High & Low Weather Summary

High73 °F (Nov 16, 1:53 PM)97% (Nov 15, 5:53 AM)30.45 "Hg (Nov 15, 5:53 AM)
Low27 °F (Nov 22, 3:53 AM)17% (Nov 22, 2:53 PM)29.36 "Hg (Nov 16, 6:53 PM)
Average48 °F64%29.99 "Hg
* Reported Nov 13 7:53 AM — Nov 28 7:56 AM, Lubbock, Weather by CustomWeather, © 2015

Note: Actual official high and low records may vary slightly from our data, if they occured in-between our weather recording intervals... More about our weather records


Lubbock weather history for previous 24 hours

Time TempWeatherWind HumidityBarometerVisibility
7:56 AM
Sat, Nov 28
30 °FLight freezing rain. Ice fog.14 mph96%30.24 "Hg5 mi
6:53 AM29 °FLight freezing rain. Mostly cloudy.9 mph93%30.27 "Hg7 mi
5:53 AM28 °FLight freezing rain. Low clouds.10 mph93%30.29 "Hg8 mi
4:53 AM28 °FLight freezing rain. Ice fog.9 mph93%30.28 "Hg3 mi
3:53 AM28 °FMostly cloudy.9 mph93%30.31 "Hg8 mi
2:53 AM28 °FLow clouds.8 mph93%30.29 "Hg10 mi
1:53 AM27 °FMostly cloudy.14 mph96%30.29 "Hg7 mi
1:02 AM28 °FOvercast.13 mph89%30.28 "Hg10 mi
11:53 PM
Fri, Nov 27
28 °FLight snow. Low clouds.9 mph93%30.33 "Hg9 mi
10:53 PM28 °FLight freezing rain. Low clouds.13 mph93%30.31 "Hg3 mi
9:53 PM28 °FLight freezing rain. Low clouds.14 mph96%30.31 "Hg3 mi
8:53 PM28 °FLight freezing rain. Low clouds.13 mph93%30.33 "Hg3 mi
7:53 PM28 °FLight freezing rain. Low clouds.15 mph96%30.34 "Hg3 mi
7:01 PM28 °FLight freezing rain. Mostly cloudy.13 mph93%30.29 "Hg3 mi
5:53 PM28 °FLow clouds.16 mph93%30.32 "Hg3 mi
4:53 PM28 °FLow clouds.18 mph93%30.28 "Hg3 mi
3:53 PM28 °FLight freezing rain. Ice fog.15 mph93%30.30 "Hg3 mi
2:53 PM29 °FLight freezing rain. Ice fog.16 mph93%30.30 "Hg3 mi
1:53 PM30 °FLight freezing rain. Ice fog.17 mph92%30.30 "Hg3 mi
12:53 PM30 °FLow clouds.17 mph92%30.33 "Hg10 mi
11:53 AM30 °FLight freezing rain. Mostly cloudy.18 mph92%30.33 "Hg8 mi
10:59 AM30 °FFreezing rain. Ice fog.16 mph92%30.32 "Hg1 mi
9:59 AM31 °FFreezing rain. Ice fog.18 mph92%30.29 "Hg2 mi
Weather by CustomWeather, © 2015

See weather overviewHow to use our weather pages